Location: Home
(42.5358°N, 72.7383°W)
Time: 14:39:12
(UTC-05:00)

deb Explorer IX - Pass Details

Date: 06 December 2021
Orbit: 544 x 1082 km, 38.8° (Epoch: 16 January)

Event Time Altitude Azimuth Distance (km) Brightness Sun altitude
Rises 09:14:20 0° 237° (WSW) 3,229 ? 16.5°
Reaches altitude 10° 09:17:06 10° 229° (SW) 2,208 ? 16.8°
Maximum altitude 09:21:43 36° 164° (SSE) 1,036 ? 17.3°
Drops below altitude 10° 09:25:49 10° 97° (E) 1,944 ? 17.7°
Sets 09:28:07 0° 88° (E) 2,792 ? 17.9°
